Location: Newark
(30.1000°N, 109.4667°E)
Time: 14:55:58
(UTC+00:00)

SR - Pass Details

Date: 21 February 2020
Orbit: 578 x 878 km, 66.7° (Epoch: 08 April)

Event Time Altitude Azimuth Distance (km) Brightness Sun altitude
Rises 17:21:52 0° 339° (NNW) 3,210 - -69.5°
Reaches altitude 10° 17:24:24 10° 344° (NNW) 2,232 - -69.4°
Maximum altitude 17:29:23 58° 63° (ENE) 799 - -69.0°
Drops below altitude 10° 17:33:54 10° 142° (SE) 2,034 - -68.5°
Sets 17:36:07 0° 147° (SSE) 2,900 - -68.3°
